www.pogodaiklimat.ru

Погода и климат >> Архив погоды >> Россия >> город Санкт-Петербург >> Ломоносов


ПОГОДА в Ломоносове

  • Прогноз погоды в Ломоносове
  • Монитор погоды в Ломоносове

АРХИВ ПОГОДЫ в Ломоносове

Время (UTC), дата Ветер
(напр.,м/с)
 
Видим.   Явления Облачность Т
(С)
Тd
(С)
f
(%)
Тe
(С)
Тes
(С)
Комфортность P
(гПа)
Po
(гПа)
Тmin
(С)
Tmax
(С)
R
(мм)
R24
(мм)
S
(см)
06 17.02 Ю 6-13
{16}
20 км ясно +1.2 -5.1 63 -5 -5 1000.9 1000.4 +1.0 20
09 17.02 З 8-15
{16}
20 км 3/3 600 м
[Cu hum Ac trans]
+2.3 -5.2 58 -4 -4 1003.4 1002.9
12 17.02 З 6-15
{16}
20 км 3/3 600 м
[Cu hum]
+2.4 -5.4 56 -3 -3 1007.4 1006.9
15 17.02 СЗ 6-12
{15}
20 км 3/0
[Ci fib]
+1.2 -7.1 54 -4 -4 1011.4 1010.9
18 17.02 СЗ 4-10
{12}
20 км ясно -0.4 -8.6 54 -5 -5 1015.8 1015.3 +2.6
21 17.02 З 4
{10}
20 км ясно -2.3 -7.8 66 -8 -8 1018.2 1017.7
00 18.02 СЗ 3 20 км 3/0
[Ci fib]
-3.4 -8.5 68 -8 -8 1020.1 1019.6
03 18.02 З 2 20 км 3/0
[Ci fib]
-4.1 -9.1 68 -8 -8 1021.8 1021.3 -4.3
06 18.02 З 1 20 км 3/0
[Ac trans Ci fib]
-6.4 -9.2 80 -9 -9 1022.8 1022.3 -6.4 17
09 18.02 В 1 20 км 8/0
[Ac trans]
-3.4 -8.5 68 -5 -4 1023.6 1023.1
12 18.02 Ю 2 20 км 9/3 600 м
[Sc Ac trans Ci fib]
-0.9 -8.2 58 -4 -4 1021.7 1021.2
15 18.02 Ю 3 20 км 10/0
[Ac As]
-0.9 -9.1 54 -5 -5 1019.1 1018.6
18 18.02 ЮЗ 4 20 км 10/3 600 м
[Sc Ac As]
+0.2 -9.1 50 -5 -5 1014.7 1014.2 +0.2
21 18.02 ЮЗ 4 20 км 10/0
[Ac As]
+1.4 -7.7 51 -3 -3 1010.7 1010.2
00 19.02 ЮЗ 3 20 км 10/10 300 м
[Sc]
+1.8 -3.3 69 -2 -2 1008.6 1008.1
03 19.02 ЮЗ 3 20 км 10/10 270 м
[St]
+1.6 0.0 89 -3 -3 1006.2 1005.7 +0.2
06 19.02 З 2 10 км 10/10 300 м
[St]
+2.6 +0.7 87 -1 -1 1005.1 1004.6 +0.2 17
09 19.02 ЮЗ 3 4000 м дымка 10/10 330 м
[St]
+2.9 +1.6 91 -1 -1 1004.2 1003.7
12 19.02 ЮЗ 2 4000 м дымка 10/10 400 м
[St]
+3.5 +1.7 88 +1 +1 1001.8 1001.3
15 19.02 ЮЗ 4 4000 м дымка 10/10 400 м
[St]
+2.7 +0.9 88 -2 -2 998.3 997.8
18 19.02 ЮЗ 3 4000 м слаб. морось 10/10 300 м
[St]
+2.8 +1.2 89 -1 -1 995.2 994.7 +3.7 0.0
21 19.02 З 2 4000 м слаб. дождь {морось} 10/0
[As op]
+1.9 +0.8 92 -2 -2 992.7 992.2
00 20.02 З 2 2000 м дождь со снегом 10/0 300 м
[As op]
+1.4 +0.9 96 -2 -2 991.4
03 20.02 З 2 10 км слаб. дождь 10/0 300 м
[As op]
+2.3 +1.5 94 -1 -1 990.7 990.2 +1.3 3
06 20.02 З 2 4000 м слаб. дождь 10/0 300 м
[As op]
+2.2 +1.7 96 -1 -1 990.2 989.7 +1.3 3 15
09 20.02 З 4
{10}
10 км {дождь} 10/6 300 м
[Cb calv Ac As]
+2.4 0.0 84 -2 -2 990.2 989.7
12 20.02 З 2 4000 м слаб. ливневой дождь 9/6 300 м
[Cb calv Ac trans Ci sp]
+1.9 +0.2 88 -1 -1 990.4 989.9
15 20.02 З 7-12
{12}
10 км в посл. час ливневой дождь 10/6 300 м
[Frnb Ac As]
-0.2 -2.6 84 -7 -7 991.8 991.3 2
18 20.02 СЗ 6-12
{14}
10 км слаб. снег {дождь} 10/0
[Ac As]
-2.8 -6.9 73 -10 -10 996.3 995.8 +2.5 1
21 20.02 СЗ 6-12
{14}
4000 м слаб. снег {метель} 10/0 300 м
[As op]
-4.1 -8.3 73 -11 -11 999.1 998.6
00 21.02 С 6-12
{12}
10 км слаб. снег {метель} 10/0
[As op]
-4.9 -10.7 64 -12 -12 1004.0 1003.5
03 21.02 С 7-14
{15}
20 км {снег, метель} 4/0
[Ac trans]
-5.5 -12.1 60 -14 -14 1008.5 1008.0 -5.8 1
06 21.02 С 5-12
{15}
20 км {снег, метель} 3/0
[Ac trans]
-7.1 -13.4 61 -14 -14 1012.7 1012.2 -7.3 0.9 15
09 21.02 -10
{12}
20 км н/о -6.1 -13.0 58 -13 -12 1016.6 1016.1
12 21.02 С 4
{10}
20 км 3/3 600 м
[Cu Sc]
-4.7 -12.4 55 -11 -10 1018.7 1018.2
15 21.02 С 4 20 км 3/3 600 м
[Cu Sc]
-5.1 -12.5 56 -11 -11 1021.7 1021.2
18 21.02 С 4 20 км 3/3 300 м
[Sc]
-6.6 -13.2 59 -13 -13 1024.8 1024.3 -4.5
21 21.02 С 4 20 км 3/3 600 м
[Sc]
-7.8 -13.9 62 -14 -14 1026.8 1026.3
00 22.02 С 4 20 км 3/3 600 м
[Sc]
-8.7 -13.0 71 -15 -15 1029.4 1028.9
03 22.02 С 4 20 км ясно -9.5 -12.5 79 -16 -16 1031.7 1031.2 -9.7
06 22.02 СЗ 2 20 км ясно -10.2 -13.0 80 -15 -14 1034.4 1033.9 -10.2 13
09 22.02 СЗ 3 20 км ясно -7.6 -11.6 73 -13 -11 1036.2 1035.7
12 22.02 З 3 20 км ясно -4.8 -11.0 62 -10 -8 1038.6 1038.1
15 22.02 З 3 20 км ясно -4.2 -13.7 48 -9 -9 1038.7 1038.2
18 22.02 З 1 20 км ясно -6.6 -13.2 59 -9 -9 1038.9 1038.4 -3.8
21 22.02 З 1 20 км 10/0
[As trans]
-7.0 -10.8 74 -9 -9 1037.4 1036.9
00 23.02 З 2 20 км 10/0
[As trans]
-5.6 -9.8 72 -10 -10 1034.5 1034.0
03 23.02 ЮЗ 3 4000 м слаб. снег 10/0 300 м
[As op]
-4.8 -7.6 81 -10 -10 1031.3 1030.8 -7.4 0.2
06 23.02 ЮЗ 4 4000 м слаб. снег {метель} 10/0 300 м
[As op]
-3.6 -5.4 87 -10 -10 1025.8 1025.3 -7.4 1 13
09 23.02 З 5-12
{12}
4000 м слаб. снег {метель} 10/0 300 м
[As op]
-0.3 -0.9 96 -7 -6 1023.8 1023.3
12 23.02 З 6-12
{14}
10 км {снег, метель} 10/10 300 м
[St]
+0.6 -0.8 90 -6 -6 1023.6 1023.1
15 23.02 З 4
{12}
4000 м дымка 10/10 210 м
[St]
+0.9 +0.1 94 -5 -5 1023.3 1022.8 2
18 23.02 З 3 20 км {морось} 10/10 270 м
[St]
+1.5 +0.7 94 -3 -3 1023.6 1023.1 +1.5 0.7
21 23.02 З 3 10 км 10/10 300 м
[St]
+1.7 +0.9 94 -3 -3 1023.2 1022.7
00 24.02 З 2 10 км 9/9 300 м
[St]
+1.5 +0.7 94 -2 -2 1023.0 1022.5
03 24.02 ЮЗ 2 4000 м дымка 10/10 210 м
[St]
+1.4 +0.9 96 -2 -2 1022.8 1022.3 +1.0

 

Местоположение метеостанции Ломоносов (город Санкт-Петербург, Россия): широта 59.92 долгота 29.78 высота над уровнем моря 4 м.

В архиве по умолчанию представлена погода в Ломоносове за последнюю неделю. Архивные данные за месяц целиком и за предыдущие месяцы, начиная с января 2011 года, Вы можете получить, выбрав интересующий диапазон дат из раскрывающегося списка и нажав кнопку "Ввод!".


*Определитесь, кто Вы:
робот инопланетянин человек

Внимание! Время в таблицах - всемирное. Для получения местного времени необходимо прибавить поправку, которая равна 3 ч.

Смотрите также архив погоды в соседних городах и на ближайших метеорологических станциях:

Погода в Кронштадте (город Санкт-Петербург, Россия) (7 км)
Погода в Лисьем Носу (город Санкт-Петербург, Россия) (16 км)
Погода в Шепелево (Ленинградская область, Россия) (29 км)
Погода в Санкт-Петербурге (город Санкт-Петербург, Россия) (29 км)
Погода в Сосновом Бору (Ленинградская область, Россия) (36 км)
Погода в Рощино (Ленинградская область, Россия) (38 км)
Погода в Воейково (город Санкт-Петербург, Россия) (51 км)
Погода в Озерках (Ленинградская область, Россия) (53 км)
Погода в Волосово (Ленинградская область, Россия) (57 км)
Погода в Белогорке (Ленинградская область, Россия) (66 км)

Пояснения к столбцам:

Ветер - указаны скорость ветра в м/с - средняя за 10 мин, порывы в срок и между сроками (в фигурных скобках) и направление, откуда дует ветер: С - северный, СВ - северо-восточный, В - восточный, ЮВ - юго-восточный, Ю - южный, ЮЗ - юго-западный, З - западный, СЗ - северо-западный.
Видимость - горизонтальная дальность видимости в метрах или километрах. При видимости от 1 до 10 км при отсутствии осадков обычно наблюдается дымка, при ухудшении видимости до 1 км и менее - туман. В сухую погоду видимость может ухудшаться дымом, пылью или мглою.
Явления - указаны атмосферные явления, наблюдавшиеся в срок или в последний час перед сроком; фигурными скобками обозначены явления, наблюдавшиеся между сроками (за 1-3 часа до срока); квадратными скобками обозначены град или гололедные отложения с указанием их диаметра в мм.
Облачность - указаны через наклонную черту общая и нижняя облачность в баллах и высота нижней границы облаков в метрах; квадратными скобками обозначены формы облаков: Ci - перистые, Cs - перисто-слоистые, Cc - перисто-кучевые, Ac - высококучевые, As - высокослоистые, Sc - слоисто-кучевые, Ns - слоисто-дождевые, Cu - кучевые, Cb - кучево-дождевые. Подробнее классификацию облаков см. в Атласе облаков (PDF).
T - Температура воздуха - температура, измеренная на высоте 2 м над землей.
Td - Температура точки росы - температура, при понижении до которой содержащийся в воздухе водяной пар достигнет насыщения.
f - Относительная влажность воздуха - влажноcть воздуха, измеренная на высоте 2 м над землей.
Te - Эффективная температура - температура, которую ощущает одетый по сезону человек в тени. Характеристика душности погоды. При расчете учитывается влияние влажности воздуха и скорости ветра на теплоощущения человека.
Tes - Эффективная температура на солнце - температура, которую ощущает человек, с поправкой на солнечный нагрев. Характеристика знойности погоды. Зависит от высоты солнца над горизонтом, облачности и скорости ветра. Ночью, в пасмурную погоду, а также при ветре 12 м/с и более поправка равна нулю.
P - Атмосферное давление - приведенное к уровню моря атмосферное давление.
Po - Атмосферное давление - измеренное на уровне метеостанции атмосферное давление.
Tmin - Минимальная температура - минимум температуры воздуха на высоте 2 м над землей.
Tmax - Максимальная температура - максимум температуры воздуха на высоте 2 м над землей.
R - Количество осадков - Количество выпавших осадков за период времени, мм. При наведении курсора мыши на число - период времени, за который выпало указанное количество осадков.
R24 - Количество осадков - Количество выпавших осадков за 24 часа, мм.
S - Снежный покров - Высота снежного покрова, см. При наведении курсора мыши на число - состояние снежного покрова и степень покрытия местности в баллах.